Tracking 19846 objects as of 18-Sep-2019
HD Live streaming from Space Station
objects crossing your sky now

THORAD DELTA 1 DEB

Track THORAD DELTA 1 DEB now!
10-day predictions


NORAD ID: 8401
Int'l Code: 1974-089CD
Perigee: 1,354.5 km
Apogee: 1,450.6 km
Inclination: 101.7 °
Period: 113.7 minutes
Semi major axis: 7773 km
RCS: 0.0291 m2 (small)
Launch date: November 15, 1974
Source: United States (US)
Launch site: AIR FORCE WESTERN TEST RANGE (AFWTR)

Note: This is SATELLITE DEBRIS
aabbcc
Your satellite tracking list
Your tracking list is empty




NASA's NSSDC Master Catalog

Two Line Element Set (TLE):
1  8401U 74089CD  19260.66441223 -.00000111  00000-0 -33547-3 0  9997
2  8401 101.6777 309.0200 0061789 297.6179 185.8065 12.66699464 73578
Source of the keplerian elements: AFSPC